AVA755 SEQM-SEGU

Flight info

Callsign AVA755
Flight time 0h 39m
Altitude 22000
Route TEMOX3A TEMOX TEMOX2
Aircraft A319/M-SDE3FGHIRWY/LB1

Departure

Time 2026-04-28 14:40
Airport Mariscal Sucre International Airport (SEQM)

Arrival

Time 2026-04-28 15:19
Airport José Joaquín de Olmedo International Airport (SEGU)
Time Latitude Longitude Altitude Speed Heading
2026-04-28 14:38 -0.14231 -78.35368 7919 ft 0 kts 358°
2026-04-28 14:38 -0.14221 -78.35368 7916 ft 4 kts 357°
2026-04-28 14:38 -0.14162 -78.35371 7913 ft 17 kts 358°
2026-04-28 14:39 -0.13906 -78.35382 7900 ft 60 kts 357°
2026-04-28 14:39 -0.13321 -78.35412 7886 ft 109 kts 356°
2026-04-28 14:39 -0.12397 -78.35456 7846 ft 157 kts 358°
2026-04-28 14:39 -0.11185 -78.35487 8077 ft 180 kts 357°
2026-04-28 14:40 -0.09930 -78.35432 8735 ft 182 kts 359°
2026-04-28 14:40 -0.09086 -78.35370 9178 ft 183 kts 357°
2026-04-28 14:40 -0.07409 -78.35458 10062 ft 179 kts 345°
2026-04-28 14:40 -0.06212 -78.35728 10734 ft 176 kts 336°
2026-04-28 14:41 -0.05013 -78.36057 11247 ft 184 kts 336°
2026-04-28 14:41 -0.03751 -78.36417 11727 ft 195 kts 335°
2026-04-28 14:41 -0.02423 -78.36827 12232 ft 205 kts 333°
2026-04-28 14:41 -0.01046 -78.37282 12767 ft 212 kts 332°
2026-04-28 14:42 0.00369 -78.37779 13296 ft 221 kts 330°
2026-04-28 14:42 0.01859 -78.38339 13862 ft 237 kts 329°
2026-04-28 14:42 0.03420 -78.39033 14342 ft 256 kts 324°
2026-04-28 14:42 0.05081 -78.39880 14749 ft 281 kts 325°
2026-04-28 14:43 0.06913 -78.40765 14995 ft 306 kts 327°
2026-04-28 14:43 0.08929 -78.41674 15225 ft 328 kts 325°
2026-04-28 14:43 0.10643 -78.43130 15679 ft 325 kts 302°
2026-04-28 14:43 0.11780 -78.45067 16345 ft 323 kts 291°
2026-04-28 14:44 0.12598 -78.47145 16895 ft 322 kts 286°
2026-04-28 14:44 0.13278 -78.49278 17625 ft 323 kts 284°
2026-04-28 14:44 0.13938 -78.51418 18333 ft 324 kts 284°
2026-04-28 14:44 0.14621 -78.53553 19211 ft 322 kts 283°
2026-04-28 14:45 0.14845 -78.55750 19994 ft 321 kts 264°
2026-04-28 14:45 0.14141 -78.57872 20693 ft 330 kts 245°
2026-04-28 14:45 0.12524 -78.59565 21238 ft 356 kts 222°
2026-04-28 14:45 0.10121 -78.60462 21791 ft 386 kts 201°
2026-04-28 14:46 0.07453 -78.60870 21964 ft 385 kts 201°
2026-04-28 14:46 0.04935 -78.61621 22009 ft 372 kts 215°
2026-04-28 14:46 0.02811 -78.62977 22012 ft 359 kts 227°
2026-04-28 14:46 0.00878 -78.64551 22012 ft 359 kts 227°
2026-04-28 14:47 -0.01055 -78.66124 22007 ft 359 kts 228°
2026-04-28 14:47 -0.02994 -78.67700 22010 ft 360 kts 227°
2026-04-28 14:47 -0.04929 -78.69272 22013 ft 359 kts 227°
2026-04-28 14:47 -0.06865 -78.70841 22010 ft 359 kts 227°
2026-04-28 14:48 -0.08798 -78.72406 22010 ft 359 kts 227°
2026-04-28 14:48 -0.10736 -78.73975 22008 ft 358 kts 227°
2026-04-28 14:48 -0.12669 -78.75542 22009 ft 359 kts 227°
2026-04-28 14:48 -0.14598 -78.77108 22007 ft 358 kts 227°
2026-04-28 14:49 -0.16529 -78.78674 22006 ft 358 kts 228°
2026-04-28 14:49 -0.18461 -78.80244 22003 ft 358 kts 227°
2026-04-28 14:49 -0.20390 -78.81812 22000 ft 359 kts 227°
2026-04-28 14:49 -0.22322 -78.83382 21995 ft 359 kts 227°
2026-04-28 14:50 -0.24255 -78.84951 22002 ft 359 kts 227°
2026-04-28 14:50 -0.26195 -78.86522 22005 ft 359 kts 227°
2026-04-28 14:50 -0.28135 -78.88090 22005 ft 359 kts 227°
2026-04-28 14:50 -0.30071 -78.89655 22005 ft 359 kts 227°
2026-04-28 14:51 -0.32005 -78.91221 22004 ft 358 kts 227°
2026-04-28 14:51 -0.33934 -78.92788 22003 ft 358 kts 227°
2026-04-28 14:51 -0.35868 -78.94358 22006 ft 359 kts 227°
2026-04-28 14:51 -0.37800 -78.95927 22007 ft 358 kts 228°
2026-04-28 14:52 -0.39728 -78.97495 22010 ft 358 kts 227°
2026-04-28 14:52 -0.41658 -78.99063 22002 ft 358 kts 228°
2026-04-28 14:52 -0.43585 -79.00627 22000 ft 358 kts 227°
2026-04-28 14:52 -0.45637 -79.02041 22009 ft 367 kts 216°
2026-04-28 14:53 -0.48056 -79.02937 21690 ft 372 kts 209°
2026-04-28 14:53 -0.50512 -79.03727 21233 ft 370 kts 208°
2026-04-28 14:53 -0.52955 -79.04512 20827 ft 368 kts 210°
2026-04-28 14:53 -0.55357 -79.05350 20382 ft 365 kts 210°
2026-04-28 14:54 -0.57730 -79.06196 19928 ft 362 kts 211°
2026-04-28 14:54 -0.60097 -79.07031 19478 ft 360 kts 210°
2026-04-28 14:54 -0.62443 -79.07873 19028 ft 358 kts 210°
2026-04-28 14:54 -0.64756 -79.08716 18592 ft 352 kts 210°
2026-04-28 14:55 -0.67019 -79.09587 18187 ft 346 kts 211°
2026-04-28 14:55 -0.69248 -79.10428 17793 ft 340 kts 210°
2026-04-28 14:55 -0.71441 -79.11252 17389 ft 335 kts 210°
2026-04-28 14:55 -0.73597 -79.12067 16986 ft 329 kts 210°
2026-04-28 14:56 -0.75711 -79.12874 16588 ft 323 kts 210°
2026-04-28 14:56 -0.77787 -79.13677 16183 ft 319 kts 210°
2026-04-28 14:56 -0.79833 -79.14479 15787 ft 314 kts 210°
2026-04-28 14:56 -0.81846 -79.15281 15386 ft 311 kts 210°
2026-04-28 14:57 -0.83837 -79.16084 14991 ft 308 kts 210°
2026-04-28 14:57 -0.85151 -79.16622 14722 ft 306 kts 210°
2026-04-28 14:57 -0.87749 -79.17703 14188 ft 303 kts 210°
2026-04-28 14:57 -0.89677 -79.18523 13787 ft 301 kts 210°
2026-04-28 14:58 -0.91550 -79.19403 13386 ft 296 kts 213°
2026-04-28 14:58 -0.93373 -79.20323 13090 ft 291 kts 213°
2026-04-28 14:58 -0.95151 -79.21229 12848 ft 285 kts 213°
2026-04-28 14:58 -0.96901 -79.22128 12598 ft 281 kts 213°
2026-04-28 14:59 -0.98622 -79.23020 12346 ft 277 kts 213°
2026-04-28 14:59 -1.00319 -79.23904 12101 ft 274 kts 213°
2026-04-28 14:59 -1.01966 -79.24818 11846 ft 268 kts 218°
2026-04-28 14:59 -1.03439 -79.25917 11597 ft 263 kts 224°
2026-04-28 15:00 -1.04834 -79.27069 11339 ft 258 kts 224°
2026-04-28 15:00 -1.06195 -79.28209 11161 ft 253 kts 225°
2026-04-28 15:00 -1.07526 -79.29331 11005 ft 248 kts 225°
2026-04-28 15:00 -1.08814 -79.30418 10983 ft 237 kts 225°
2026-04-28 15:01 -1.09981 -79.31504 10983 ft 223 kts 231°
2026-04-28 15:01 -1.11005 -79.32630 10979 ft 217 kts 232°
2026-04-28 15:01 -1.12066 -79.33830 10987 ft 244 kts 233°
2026-04-28 15:01 -1.13199 -79.35130 10952 ft 252 kts 233°
2026-04-28 15:02 -1.14347 -79.36453 10902 ft 253 kts 233°
2026-04-28 15:02 -1.15498 -79.37785 10852 ft 254 kts 233°
2026-04-28 15:02 -1.16705 -79.39070 10798 ft 257 kts 221°
2026-04-28 15:02 -1.18300 -79.39920 10750 ft 263 kts 208°
2026-04-28 15:03 -1.20003 -79.40577 10740 ft 264 kts 203°
2026-04-28 15:03 -1.21755 -79.41133 10739 ft 265 kts 202°
2026-04-28 15:03 -1.23512 -79.41676 10739 ft 265 kts 202°
2026-04-28 15:03 -1.25223 -79.42320 10738 ft 262 kts 210°
2026-04-28 15:04 -1.26837 -79.43146 10738 ft 261 kts 212°
2026-04-28 15:04 -1.28399 -79.44047 10737 ft 260 kts 214°
2026-04-28 15:04 -1.30011 -79.44878 10733 ft 262 kts 211°
2026-04-28 15:04 -1.31639 -79.45678 10695 ft 261 kts 211°
2026-04-28 15:05 -1.33267 -79.46476 10641 ft 261 kts 211°
2026-04-28 15:05 -1.34897 -79.47275 10604 ft 261 kts 211°
2026-04-28 15:05 -1.36526 -79.48074 10556 ft 261 kts 211°
2026-04-28 15:05 -1.38152 -79.48871 10512 ft 261 kts 211°
2026-04-28 15:06 -1.39782 -79.49670 10465 ft 261 kts 211°
2026-04-28 15:06 -1.41408 -79.50468 10415 ft 261 kts 211°
2026-04-28 15:06 -1.43037 -79.51267 10373 ft 261 kts 210°
2026-04-28 15:06 -1.44666 -79.52065 10326 ft 261 kts 210°
2026-04-28 15:07 -1.46295 -79.52865 10288 ft 261 kts 210°
2026-04-28 15:07 -1.47920 -79.53663 10255 ft 261 kts 210°
2026-04-28 15:07 -1.49548 -79.54462 10220 ft 261 kts 210°
2026-04-28 15:07 -1.51147 -79.55307 10184 ft 260 kts 213°
2026-04-28 15:08 -1.52710 -79.56207 10146 ft 260 kts 214°
2026-04-28 15:08 -1.54271 -79.57113 10115 ft 260 kts 214°
2026-04-28 15:08 -1.55829 -79.58018 10086 ft 260 kts 214°
2026-04-28 15:08 -1.57387 -79.58924 10046 ft 260 kts 214°
2026-04-28 15:09 -1.58946 -79.59831 10014 ft 260 kts 214°
2026-04-28 15:09 -1.60502 -79.60736 9977 ft 260 kts 214°
2026-04-28 15:09 -1.62059 -79.61643 9940 ft 260 kts 214°
2026-04-28 15:09 -1.63096 -79.62247 9918 ft 259 kts 214°
2026-04-28 15:10 -1.65175 -79.63459 9823 ft 260 kts 214°
2026-04-28 15:10 -1.66730 -79.64365 9708 ft 259 kts 214°
2026-04-28 15:10 -1.68285 -79.65271 9538 ft 259 kts 213°
2026-04-28 15:10 -1.69836 -79.66174 9364 ft 258 kts 213°
2026-04-28 15:11 -1.71382 -79.67076 9195 ft 258 kts 213°
2026-04-28 15:11 -1.72928 -79.67977 9023 ft 258 kts 213°
2026-04-28 15:11 -1.74472 -79.68877 8853 ft 257 kts 213°
2026-04-28 15:11 -1.76012 -79.69776 8682 ft 257 kts 213°
2026-04-28 15:12 -1.77553 -79.70671 8507 ft 256 kts 213°
2026-04-28 15:12 -1.79089 -79.71564 8337 ft 256 kts 213°
2026-04-28 15:12 -1.80723 -79.72251 8154 ft 260 kts 191°
2026-04-28 15:12 -1.82540 -79.72305 7981 ft 262 kts 183°
2026-04-28 15:13 -1.84359 -79.72303 7805 ft 262 kts 182°
2026-04-28 15:13 -1.86176 -79.72300 7588 ft 262 kts 182°
2026-04-28 15:13 -1.87975 -79.72481 7226 ft 260 kts 200°
2026-04-28 15:13 -1.89595 -79.73241 6881 ft 258 kts 212°
2026-04-28 15:14 -1.91134 -79.74166 6530 ft 259 kts 213°
2026-04-28 15:14 -1.92688 -79.75082 6193 ft 260 kts 212°
2026-04-28 15:14 -1.94222 -79.75965 6082 ft 251 kts 212°
2026-04-28 15:14 -1.95709 -79.76817 5939 ft 243 kts 212°
2026-04-28 15:15 -1.97152 -79.77644 5796 ft 236 kts 212°
2026-04-28 15:15 -1.98555 -79.78444 5402 ft 230 kts 211°
2026-04-28 15:15 -1.99932 -79.79229 4878 ft 227 kts 211°
2026-04-28 15:15 -2.01290 -79.80002 4352 ft 224 kts 211°
2026-04-28 15:16 -2.02617 -79.80785 3818 ft 221 kts 219°
2026-04-28 15:16 -2.03909 -79.81589 3290 ft 218 kts 213°
2026-04-28 15:16 -2.05176 -79.82381 2852 ft 213 kts 213°
2026-04-28 15:16 -2.06436 -79.83149 2305 ft 214 kts 211°
2026-04-28 15:17 -2.07746 -79.83853 1805 ft 213 kts 208°
2026-04-28 15:17 -2.09053 -79.84534 1320 ft 212 kts 208°
2026-04-28 15:17 -2.10300 -79.85203 1121 ft 193 kts 210°
2026-04-28 15:17 -2.11398 -79.85853 900 ft 175 kts 212°
2026-04-28 15:18 -2.12410 -79.86463 593 ft 166 kts 210°
2026-04-28 15:18 -2.13378 -79.87008 383 ft 154 kts 210°
2026-04-28 15:18 -2.14299 -79.87531 154 ft 155 kts 210°
2026-04-28 15:18 -2.15222 -79.88067 33 ft 145 kts 209°
2026-04-28 15:19 -2.16010 -79.88518 22 ft 111 kts 210°
2026-04-28 15:19 -2.16476 -79.88784 23 ft 40 kts 210°
2026-04-28 15:19 -2.16549 -79.88714 23 ft 19 kts 70°
2026-04-28 15:19 -2.16442 -79.88640 23 ft 7 kts 31°
2026-04-28 15:20 -2.16440 -79.88639 23 ft 0 kts 31°